User: anonymous   Login
Location: Edmonton
(53.5500°N, 113.5000°W)
Time: 13:35:31
(UTC-06:00)
Language:

CZ-4C R/B - Orbit

View from above orbital plane
View from above orbital plane
View from above satellite
View from above satellite

Ground track
Ground track

The orbit data is extracted from the following two-line orbital elements,

1 36416U 10009D   15151.41115638 -.00000050  00000-0  37871-4 0  9998
2 36416 063.4457 107.9124 0313701 358.8664 001.1628 13.69467620261966
Epoch (UTC): 31 May 2015 09:52:03
Eccentricity: 0.0313701
inclination: 63.4457°
perigee height: 770 km
apogee height: 1233 km
right ascension of ascending node: 107.9124°
argument of perigee: 358.8664°
revolutions per day: 13.69467620
mean anomaly at epoch: 1.1628°
orbit number at epoch: 26196

The dashed part of the orbit path shows where the satellite is in the earth's shadow,  

DLR